When you browse on this site, cookies collect data to enhance your experience and personalize the content and advertising you see.
Visit our Privacy Policy to learn more. By continuing to use the site, you agree to this use of cookies and data.
  • en Suisse
  • Liste des pays
  • À 7 jours
  • Température de l'eau
  • Carte satellitaire
  • Carte météo
  • Widgets météo
  • user-avatar
    Se connecter

    Météo par heure à Qui Nhon

    Ce jour, 16 Juillet, Mardi

    Heure Température Précipitation Vent Pression Humidité
    00:00 +28°C° 0 mm 2 m/s 752 mmHg 86%
    01:00 +28°C° 0 mm 2 m/s 752 mmHg 87%
    02:00 +27°C° 0 mm 2 m/s 752 mmHg 87%
    03:00 +27°C° 0 mm 2 m/s 751 mmHg 88%
    04:00 +27°C° 0 mm 3 m/s 751 mmHg 89%
    05:00 +28°C° 0 mm 2 m/s 751 mmHg 86%
    06:00 +28°C° 0 mm 2 m/s 751 mmHg 83%
    07:00 +29°C° 0 mm 3 m/s 752 mmHg 82%
    08:00 +31°C° 0 mm 3 m/s 752 mmHg 73%
    09:00 +34°C° 0 mm 2 m/s 752 mmHg 63%
    10:00 +36°C° 0 mm 2 m/s 752 mmHg 54%
    11:00 +37°C° 0 mm 3 m/s 751 mmHg 52%
    12:00 +38°C° 0 mm 3 m/s 751 mmHg 50%
    13:00 +39°C° 0 mm 3 m/s 750 mmHg 45%
    14:00 +38°C° 0.1 mm 3 m/s 750 mmHg 50%
    15:00 +36°C° 0.1 mm 3 m/s 750 mmHg 56%
    16:00 +35°C° 0.1 mm 3 m/s 750 mmHg 61%
    17:00 +33°C° 1.5 mm 3 m/s 750 mmHg 70%
    18:00 +31°C° 1.5 mm 3 m/s 750 mmHg 79%
    19:00 +29°C° 1.5 mm 2 m/s 751 mmHg 88%
    20:00 +29°C° 0.2 mm 2 m/s 751 mmHg 89%
    21:00 +28°C° 0.2 mm 1 m/s 752 mmHg 89%
    22:00 +28°C° 0.2 mm 1 m/s 753 mmHg 90%
    23:00 +28°C° 0 mm 1 m/s 752 mmHg 90%

    Demain, 17 Juillet, Mercredi

    Heure Température Précipitation Vent Pression Humidité
    00:00 +27°C° 0 mm 2 m/s 752 mmHg 91%
    01:00 +27°C° 0 mm 2 m/s 751 mmHg 91%
    02:00 +27°C° 0 mm 2 m/s 751 mmHg 91%
    03:00 +27°C° 0 mm 2 m/s 751 mmHg 91%
    04:00 +27°C° 0 mm 3 m/s 751 mmHg 91%
    05:00 +27°C° 0 mm 3 m/s 751 mmHg 89%
    06:00 +28°C° 0 mm 3 m/s 751 mmHg 86%
    07:00 +28°C° 0 mm 3 m/s 751 mmHg 84%
    08:00 +30°C° 0 mm 3 m/s 751 mmHg 74%
    09:00 +32°C° 0 mm 2 m/s 751 mmHg 65%
    10:00 +35°C° 0 mm 2 m/s 751 mmHg 55%
    11:00 +36°C° 0 mm 2 m/s 750 mmHg 53%
    12:00 +37°C° 0 mm 3 m/s 750 mmHg 52%
    13:00 +38°C° 0 mm 3 m/s 749 mmHg 50%
    14:00 +37°C° 0.2 mm 3 m/s 749 mmHg 54%
    15:00 +36°C° 0.2 mm 3 m/s 749 mmHg 58%
    16:00 +35°C° 0.2 mm 3 m/s 748 mmHg 62%
    17:00 +33°C° 0.6 mm 3 m/s 749 mmHg 70%
    18:00 +31°C° 0.6 mm 3 m/s 750 mmHg 78%
    19:00 +29°C° 0.6 mm 3 m/s 751 mmHg 87%
    20:00 +29°C° 0.1 mm 3 m/s 751 mmHg 87%
    21:00 +29°C° 0.1 mm 2 m/s 751 mmHg 87%
    22:00 +28°C° 0.1 mm 2 m/s 751 mmHg 87%
    23:00 +28°C° 0.1 mm 3 m/s 751 mmHg 88%

    Après-demain, 18 Juillet, Jeudi

    Heure Température Précipitation Vent Pression Humidité
    00:00 +28°C° 0.1 mm 3 m/s 751 mmHg 89%
    01:00 +28°C° 0.1 mm 3 m/s 751 mmHg 89%
    02:00 +28°C° 0 mm 3 m/s 750 mmHg 88%
    03:00 +28°C° 0 mm 2 m/s 750 mmHg 87%
    04:00 +28°C° 0 mm 2 m/s 750 mmHg 86%
    05:00 +28°C° 0 mm 2 m/s 750 mmHg 83%
    06:00 +29°C° 0 mm 2 m/s 750 mmHg 81%
    07:00 +29°C° 0 mm 3 m/s 750 mmHg 78%
    08:00 +31°C° 0 mm 3 m/s 750 mmHg 71%
    09:00 +34°C° 0 mm 4 m/s 750 mmHg 63%
    10:00 +35°C° 0 mm 5 m/s 750 mmHg 56%
    11:00 +36°C° 0 mm 4 m/s 750 mmHg 53%
    12:00 +37°C° 0 mm 4 m/s 749 mmHg 50%
    13:00 +38°C° 0 mm 3 m/s 749 mmHg 48%
    14:00 +38°C° 0.1 mm 4 m/s 749 mmHg 50%
    15:00 +37°C° 0.1 mm 5 m/s 748 mmHg 52%
    16:00 +38°C° 0.1 mm 6 m/s 748 mmHg 54%
    17:00 +35°C° 0.3 mm 5 m/s 749 mmHg 62%
    18:00 +33°C° 0.3 mm 5 m/s 749 mmHg 69%
    19:00 +30°C° 0.3 mm 5 m/s 750 mmHg 77%
    20:00 +30°C° 0.1 mm 4 m/s 750 mmHg 77%
    21:00 +30°C° 0.1 mm 3 m/s 751 mmHg 77%
    22:00 +30°C° 0.1 mm 2 m/s 751 mmHg 77%
    23:00 +29°C° 0 mm 2 m/s 751 mmHg 77%

    19 Juillet, Vendredi

    Heure Température Précipitation Vent Pression Humidité
    00:00 +29°C° 0 mm 2 m/s 751 mmHg 77%
    01:00 +29°C° 0 mm 3 m/s 751 mmHg 77%
    02:00 +29°C° 0 mm 3 m/s 750 mmHg 77%
    03:00 +29°C° 0 mm 3 m/s 750 mmHg 77%
    04:00 +29°C° 0 mm 2 m/s 750 mmHg 78%
    05:00 +29°C° 0 mm 3 m/s 750 mmHg 76%
    06:00 +29°C° 0 mm 4 m/s 751 mmHg 75%
    07:00 +30°C° 0 mm 4 m/s 751 mmHg 73%
    08:00 +32°C° 0 mm 4 m/s 751 mmHg 68%
    09:00 +34°C° 0 mm 4 m/s 751 mmHg 62%
    10:00 +35°C° 0 mm 4 m/s 752 mmHg 57%
    11:00 +36°C° 0 mm 4 m/s 751 mmHg 54%
    12:00 +37°C° 0 mm 4 m/s 750 mmHg 51%
    13:00 +39°C° 0 mm 5 m/s 750 mmHg 48%
    14:00 +39°C° 0 mm 5 m/s 750 mmHg 49%
    15:00 +39°C° 0 mm 5 m/s 749 mmHg 50%
    16:00 +39°C° 0 mm 6 m/s 749 mmHg 50%
    17:00 +36°C° 0 mm 5 m/s 750 mmHg 57%
    18:00 +34°C° 0 mm 4 m/s 750 mmHg 64%
    19:00 +31°C° 0 mm 3 m/s 751 mmHg 72%
    20:00 +30°C° 0 mm 3 m/s 751 mmHg 74%
    21:00 +29°C° 0 mm 3 m/s 751 mmHg 77%
    22:00 +29°C° 0 mm 3 m/s 752 mmHg 79%
    23:00 +29°C° 0 mm 3 m/s 751 mmHg 79%

    20 Juillet, Samedi

    Heure Température Précipitation Vent Pression Humidité
    00:00 +29°C° 0 mm 3 m/s 751 mmHg 80%
    01:00 +29°C° 0 mm 3 m/s 751 mmHg 80%
    02:00 +29°C° 0 mm 3 m/s 751 mmHg 79%
    03:00 +29°C° 0 mm 3 m/s 750 mmHg 79%
    04:00 +29°C° 0 mm 3 m/s 750 mmHg 79%
    05:00 +29°C° 0 mm 3 m/s 751 mmHg 75%
    06:00 +30°C° 0 mm 3 m/s 751 mmHg 71%
    07:00 +31°C° 0 mm 3 m/s 752 mmHg 67%
    08:00 +33°C° 0 mm 4 m/s 752 mmHg 62%
    09:00 +35°C° 0 mm 4 m/s 752 mmHg 57%
    10:00 +36°C° 0 mm 4 m/s 752 mmHg 53%
    11:00 +37°C° 0 mm 4 m/s 751 mmHg 51%
    12:00 +38°C° 0 mm 4 m/s 750 mmHg 49%
    13:00 +38°C° 0 mm 4 m/s 750 mmHg 47%
    14:00 +39°C° 0 mm 5 m/s 749 mmHg 48%
    15:00 +39°C° 0 mm 6 m/s 749 mmHg 49%
    16:00 +39°C° 0 mm 6 m/s 749 mmHg 50%
    17:00 +36°C° 0 mm 5 m/s 749 mmHg 56%
    18:00 +34°C° 0 mm 5 m/s 750 mmHg 62%
    19:00 +33°C° 0 mm 4 m/s 750 mmHg 68%
    20:00 +32°C° 0 mm 4 m/s 750 mmHg 70%
    21:00 +30°C° 0 mm 4 m/s 751 mmHg 72%
    22:00 +30°C° 0 mm 3 m/s 751 mmHg 74%
    23:00 +30°C° 0 mm 3 m/s 751 mmHg 74%

    21 Juillet, Dimanche

    Heure Température Précipitation Vent Pression Humidité
    00:00 +30°C° 0 mm 4 m/s 751 mmHg 75%
    01:00 +30°C° 0 mm 4 m/s 750 mmHg 75%
    02:00 +30°C° 0 mm 4 m/s 750 mmHg 74%
    03:00 +30°C° 0 mm 4 m/s 750 mmHg 74%
    04:00 +30°C° 0 mm 4 m/s 750 mmHg 73%
    05:00 +30°C° 0 mm 4 m/s 750 mmHg 73%
    06:00 +30°C° 0 mm 4 m/s 751 mmHg 72%
    07:00 +30°C° 0 mm 4 m/s 751 mmHg 71%
    08:00 +32°C° 0 mm 4 m/s 751 mmHg 69%
    09:00 +32°C° 0 mm 5 m/s 751 mmHg 66%
    10:00 +33°C° 0 mm 5 m/s 751 mmHg 64%
    11:00 +34°C° 0 mm 5 m/s 751 mmHg 60%
    12:00 +35°C° 0 mm 5 m/s 750 mmHg 57%
    13:00 +36°C° 0 mm 5 m/s 750 mmHg 53%
    14:00 +36°C° 0 mm 6 m/s 749 mmHg 53%
    15:00 +38°C° 0 mm 6 m/s 749 mmHg 53%
    16:00 +38°C° 0 mm 6 m/s 748 mmHg 53%
    17:00 +36°C° 0 mm 6 m/s 749 mmHg 58%
    18:00 +34°C° 0 mm 5 m/s 749 mmHg 64%
    19:00 +33°C° 0 mm 5 m/s 749 mmHg 69%
    20:00 +32°C° 0 mm 4 m/s 750 mmHg 71%
    21:00 +30°C° 0 mm 4 m/s 751 mmHg 73%
    22:00 +30°C° 0 mm 3 m/s 751 mmHg 75%
    23:00 +30°C° 0 mm 3 m/s 751 mmHg 75%
    Voir plus